Theta_e
295 296 299 307 311 315 319 321 322 324 326 325 325 325 325 325 324 324 323 319 316 315 316 314 311 308 305 300 296 295 293 291
295 296 296 296 297 301 309 313 315 317 322 323 323 324 325 325 324 325 322 317 316 314 311 309 307 304 301 297 294 294 292 290
296 296 296 297 297 297 297 299 304 308 311 313 316 315 320 323 325 320 317 313 313 310 308 307 304 301 300 296 296 295 291 290
295 295 296 296 296 296 297 298 299 302 303 304 306 309 311 314 311 309 307 306 304 304 304 302 301 298 297 298 295 292 293 290
295 295 295 296 296 296 297 298 299 301 301 300 301 305 307 307 307 304 303 302 301 301 301 300 297 297 295 295 293 291 290 290
295 295 294 295 296 296 296 297 298 299 299 299 298 300 300 299 298 298 297 297 297 295 295 295 294 295 293 292 291 290 288 288
295 294 294 295 295 296 296 296 297 297 296 297 296 294 293 291 291 293 292 292 291 291 290 291 293 293 293 291 289 288 287 287
293 293 293 294 296 295 295 295 294 292 291 291 290 290 289 288 287 287 288 288 288 288 287 288 289 292 292 290 288 288 287 286
293 294 294 295 295 295 294 292 290 289 289 288 288 287 286 285 285 285 287 287 286 286 286 287 286 292 292 289 287 287 286 286
292 294 293 293 293 290 288 287 288 287 287 287 286 283 284 281 282 286 285 284 284 285 285 285 285 291 291 288 285 285 284 284
292 292 291 290 289 287 286 286 286 286 287 286 285 281 281 281 283 284 284 284 283 284 285 285 285 291 291 287 286 285 283 283
289 287 287 287 286 285 285 284 285 284 283 281 281 280 280 279 278 278 282 283 283 283 284 285 285 287 290 289 285 285 283 283
285 283 283 283 284 283 282 283 280 280 280 278 276 279 278 275 275 277 283 283 283 283 282 282 283 286 290 290 287 286 284 283
281 280 280 279 281 281 280 280 279 278 277 275 276 277 276 274 273 275 276 278 281 281 281 280 281 283 288 289 289 287 284 284
278 277 276 276 277 276 277 278 277 276 276 275 274 274 274 276 276 274 274 274 276 277 280 280 280 281 283 286 287 286 286 285
276 275 273 273 273 272 274 273 277 276 275 275 274 272 273 275 274 275 274 276 273 273 274 274 274 281 284 286 286 286 286 283
273 272 270 269 268 268 269 270 273 275 275 274 273 272 273 272 273 282 283 285 285 286 280 275 283 285 285 285 287 288 288 283
270 269 266 265 265 263 264 266 270 273 272 271 272 272 270 270 270 271 276 282 284 284 284 285 286 285 286 286 286 286 287 283
266 264 261 262 262 262 262 265 268 268 269 269 267 267 267 267 267 266 266 267 269 277 282 283 285 285 286 286 285 283 283 283
263 261 261 261 260 260 261 265 266 269 267 266 266 266 266 266 266 266 266 266 267 266 275 274 282 283 284 285 282 281 281 281
Wind_Speed
3 3 3 6 6 7 10 14 13 13 13 13 15 16 16 11 15 15 14 13 12 13 12 10 9 9 10 6 7 7 5 5
1 2 2 1 1 4 6 7 8 9 11 11 11 12 13 15 14 15 12 12 13 13 13 12 12 11 10 9 7 10 11 6
1 2 2 3 4 5 4 4 5 4 5 7 7 6 10 13 13 8 10 9 11 10 10 10 10 11 12 12 10 11 13 10
2 4 4 5 5 5 5 7 6 5 6 6 5 5 6 5 3 5 6 6 5 6 8 9 10 10 11 12 11 10 9 10
2 4 5 5 6 5 6 5 5 4 4 5 4 4 4 3 5 5 4 6 6 6 6 7 8 10 10 9 11 10 9 10
4 3 4 5 5 5 4 5 4 4 4 4 2 2 2 3 2 4 3 1 2 3 4 5 7 7 10 10 10 11 9 10
4 2 3 4 4 4 4 4 3 4 4 3 4 3 2 1 2 4 5 5 5 6 6 7 6 9 13 12 9 8 9 8
2 2 2 3 3 3 4 3 4 3 2 2 3 4 4 3 3 2 3 2 4 5 6 6 5 12 15 14 9 9 8 9
3 2 4 3 4 3 4 4 4 2 0 0 0 2 1 1 3 2 2 4 4 5 5 5 5 13 13 9 4 5 8 8
2 2 5 6 5 6 7 5 4 2 1 2 3 3 3 3 3 2 2 1 1 2 2 2 1 13 14 13 6 5 4 3
5 6 7 6 6 7 6 5 5 3 2 2 4 4 4 4 4 2 3 2 2 3 3 3 3 10 13 10 6 7 6 7
8 7 6 5 6 8 6 7 5 4 4 4 3 2 1 1 2 1 2 2 1 2 1 3 5 8 15 16 6 6 6 6
9 8 7 7 6 7 7 5 3 4 5 6 4 3 2 4 1 2 3 3 1 2 0 1 1 3 12 15 10 7 4 6
9 9 8 8 7 7 5 5 5 7 6 5 5 5 3 3 2 2 2 2 3 2 1 1 1 0 10 14 13 11 6 5
9 9 8 6 7 5 5 5 6 6 6 5 4 3 4 3 2 2 1 1 1 2 2 3 3 4 3 5 8 14 11 6
9 8 7 5 6 6 5 2 6 5 4 4 3 3 3 2 1 1 2 2 2 3 2 1 1 5 10 10 8 8 9 7
7 9 6 5 5 6 6 3 4 6 4 3 3 3 2 2 2 6 6 8 8 10 4 3 10 9 13 17 18 16 14 6
9 8 5 4 5 4 5 4 4 6 5 3 4 3 3 3 3 4 6 10 8 8 12 13 10 9 10 13 15 18 16 9
7 6 3 4 8 7 7 3 4 4 6 4 2 2 2 2 2 2 2 1 2 7 8 9 10 10 11 12 12 7 10 9
8 5 5 6 7 6 5 4 5 4 3 2 4 3 3 3 3 3 3 3 3 4 6 7 11 12 11 11 5 6 7 6
Wind_Direction
55 111 176 211 219 211 211 213 213 211 210 208 209 212 215 205 209 207 205 194 190 194 199 198 195 183 183 183 164 167 167 174
43 6 354 356 246 236 227 217 210 204 213 220 220 215 213 215 215 215 205 192 199 198 189 190 187 182 185 178 174 179 170 173
218 332 344 307 285 262 260 250 260 261 244 229 226 216 217 226 228 204 196 196 199 191 189 188 191 186 187 181 189 196 175 185
216 244 256 263 261 261 244 236 231 215 217 240 247 235 236 231 178 173 161 172 168 173 188 185 187 189 194 189 184 172 198 189
212 208 217 230 233 234 246 242 245 235 231 236 238 235 227 210 162 164 177 170 173 185 198 193 185 187 179 196 176 188 177 195
182 219 234 234 239 233 226 221 208 202 203 239 270 223 191 181 160 117 153 166 161 163 173 179 187 190 191 183 186 180 184 178
165 191 298 280 264 240 233 224 180 194 211 201 169 155 180 180 177 165 179 185 178 192 193 190 202 194 196 176 174 180 177 191
104 66 354 309 246 235 221 165 162 172 193 199 180 185 187 169 167 213 218 184 209 205 199 207 210 181 183 171 171 176 179 155
85 25 357 1 35 60 65 82 105 100 140 109 244 299 321 209 213 212 197 225 220 213 208 201 192 179 178 167 131 179 178 178
55 47 57 40 46 79 62 65 61 35 295 217 193 188 192 201 218 214 184 220 185 139 162 173 164 177 173 163 143 160 177 184
69 64 57 25 57 79 70 59 37 357 310 230 185 181 185 191 182 165 144 161 175 132 160 156 154 191 182 165 162 176 167 163
67 61 33 20 80 75 65 43 359 23 48 46 39 55 30 66 35 91 92 96 109 139 143 186 169 183 189 191 188 189 177 184
83 59 30 23 71 68 52 359 26 55 51 46 36 43 95 122 107 106 131 133 151 132 79 24 43 193 210 206 212 205 193 209
99 85 48 31 34 63 2 13 51 55 45 35 31 32 39 89 114 87 115 137 154 154 167 222 2 324 219 218 211 215 211 199
104 92 76 46 50 46 14 31 59 65 44 27 48 33 28 32 28 47 54 68 166 171 210 192 183 186 188 203 211 217 221 210
108 97 83 54 44 18 4 24 91 92 84 62 56 36 26 38 102 69 282 178 233 262 231 185 269 241 221 211 212 208 201 164
95 105 91 76 61 16 352 47 99 75 45 64 69 14 51 69 1 11 15 342 336 328 288 275 258 267 241 238 239 232 214 197
108 107 99 72 59 359 360 22 57 97 90 31 45 58 46 22 43 16 344 10 360 340 327 315 286 275 267 258 245 241 234 235
97 83 72 71 47 347 337 43 74 86 85 99 90 81 67 68 46 74 55 7 322 330 341 332 314 301 284 280 280 255 248 242
96 72 63 61 30 350 348 22 56 54 36 41 100 76 62 53 42 43 28 1 319 332 347 330 325 326 297 282 266 261 253 250